Вернуться в каталог

THORAD AGENA D DEB

АктивенSSO
NORAD 5025·DEBRIS·🇺🇸 United States

Запущен Apr 8, 1970 с Vandenberg Space Force Base

Loading…

Ближайшие Пролёты

TLE

Source: Space-Track
1 05025U 70025HZ  26228.19533059  .00000149  00000-0  30194-3 0  9995
2 05025 100.0647 296.6169 0043667 225.5539 155.3164 13.50858524767509

Отслеживайте THORAD AGENA D DEB в реальном времени с AllMySat

Download on the App Store